Location: The Jewett Observatory
(46.7288°N, 117.1525°W)
Time: 09:04:29
(UTC-07:00)

Cosmos 1633 - Visible Passes

Search period start: 29 June 2017 00:00
Search period end: 09 July 2017 00:00
Orbit: 470 x 490 km, 82.5° (Epoch: 28 June)

Date Brightness Start Highest point End Pass type
(mag) Time Alt. Az. Time Alt. Az. Time Alt. Az.
29 Jun 2.7 03:29:27 18° SSW 03:32:02 59° W 03:35:37 10° N visible
30 Jun 2.5 03:03:45 23° S 03:05:56 81° E 03:09:34 10° N visible
01 Jul 3.3 02:38:02 24° SSE 02:39:53 46° E 02:43:23 10° NNE visible
01 Jul 4.8 04:13:21 10° W 04:15:09 13° WNW 04:16:58 10° NW visible
02 Jul 4.1 02:12:19 20° SE 02:13:54 28° E 02:17:02 10° NNE visible
02 Jul 4.3 03:46:36 12° WSW 03:48:53 20° WNW 03:51:39 10° NNW visible
03 Jul 4.7 01:46:34 15° ESE 01:47:56 18° E 01:50:25 10° NE visible
03 Jul 3.6 03:20:51 20° SW 03:22:41 31° WNW 03:25:57 10° N visible
04 Jul 5.2 01:20:57 10° ESE 01:22:01 11° E 01:23:06 10° ENE visible
04 Jul 2.8 02:55:05 31° SW 02:56:31 52° WNW 03:00:03 10° N visible
05 Jul 2.4 02:29:18 43° S 02:30:24 90° WSW 02:34:01 10° N visible
06 Jul 3.0 02:03:30 41° SE 02:04:20 52° E 02:07:51 10° NNE visible
06 Jul 4.9 03:38:13 10° W 03:39:39 12° WNW 03:41:05 10° NW visible
07 Jul 3.8 01:37:42 29° ESE 01:38:19 31° E 01:41:32 10° NNE visible
07 Jul 4.4 03:11:58 15° W 03:13:22 18° WNW 03:15:57 10° NNW visible
08 Jul 4.5 01:11:52 19° E 01:12:20 19° E 01:14:58 10° NE visible
08 Jul 3.8 02:46:09 24° WSW 02:47:08 28° WNW 02:50:18 10° NNW visible
